Temp
10 10 10 10 10 10 9 10 11 12 12 12 12 12 12 11 11 11 11 16 17 18 18 17 17 17 18 17 18 16 16 16 19 18 16 15 14 12 10 8 7 7 6 5 4
10 10 10 9 10 9 9 9 10 11 12 12 12 12 12 11 11 11 14 16 16 17 17 16 15 16 16 17 17 16 15 18 15 16 13 11 11 11 8 9 8 7 5 4 3
9 9 9 9 9 9 9 9 10 11 11 12 12 12 11 10 10 12 20 17 17 16 17 17 17 17 17 17 17 16 17 16 14 14 13 10 7 8 10 6 4 4 3 3 2
8 9 9 9 9 9 8 9 9 10 11 12 12 11 11 11 15 18 18 18 17 16 17 17 16 16 16 16 17 18 14 16 15 13 13 9 7 4 4 3 4 3 2 2 1
8 8 9 8 8 8 8 8 9 10 11 11 11 11 11 10 10 18 18 18 17 16 16 15 16 15 16 16 17 17 13 11 10 8 7 6 5 4 3 4 3 2 2 1 0
8 8 8 8 8 8 8 8 9 10 11 11 11 11 11 12 17 18 18 16 16 16 16 16 15 16 16 16 17 14 11 11 11 10 10 7 6 7 4 4 3 2 1 0 -0
8 7 8 8 8 8 8 9 9 10 11 11 11 11 10 12 16 17 18 16 17 16 14 17 17 17 16 16 14 13 11 12 11 10 8 10 6 4 3 3 2 2 1 0 -1
7 7 7 7 7 7 8 9 10 10 11 11 11 11 10 16 16 16 17 16 16 17 17 17 18 17 18 17 15 15 13 13 13 12 11 11 5 4 3 2 1 2 1 0 -1
7 7 7 7 7 7 8 10 10 10 11 11 11 11 12 15 15 16 16 15 15 16 18 18 18 16 17 15 14 15 13 14 13 10 11 10 5 3 3 1 -0 -0 0 -0 -1
7 6 6 6 7 8 9 10 10 10 10 11 11 10 12 14 16 16 15 15 14 14 16 16 13 14 12 13 14 13 13 14 12 9 6 5 3 2 2 0 -1 -2 -1 -1 -2
6 6 6 6 6 7 9 9 10 10 11 11 12 13 14 15 16 16 16 16 15 14 13 14 13 14 13 13 16 15 14 10 9 8 6 4 3 1 1 -0 -1 -2 -3 -2 -3
6 6 6 6 6 7 8 10 12 12 11 12 12 12 14 16 15 15 17 15 14 13 13 13 13 13 14 14 16 15 10 7 7 8 6 4 2 1 1 -1 -1 -2 -3 -3 -4
6 6 6 6 6 7 8 10 12 12 12 14 13 13 15 16 14 14 15 14 13 12 13 13 15 13 14 14 14 14 11 8 9 5 5 4 3 1 -0 -1 -2 -2 -3 -3 -4
6 6 6 6 7 7 9 11 11 12 12 14 13 14 15 15 15 15 15 15 14 13 12 14 15 14 13 14 14 13 13 11 7 10 10 6 10 2 -0 -1 -2 -4 -5 -4 -5
5 6 7 6 7 8 10 11 12 12 12 14 13 16 14 15 14 14 15 16 13 13 13 14 13 13 13 14 14 15 13 11 10 10 8 7 8 1 -0 -2 -3 -5 -5 -6 -6
5 6 6 6 7 10 10 11 12 11 11 13 14 14 14 14 14 14 15 16 15 14 14 14 15 14 14 15 15 13 12 11 11 11 12 9 10 5 0 1 -3 -4 -5 -5 -6
6 6 6 7 8 9 12 11 11 10 15 13 13 14 14 13 14 14 14 14 13 13 12 14 15 15 15 14 15 14 13 11 11 12 12 10 9 3 1 -0 -2 -4 -5 -6 -7
8 8 8 9 9 10 10 11 11 13 13 13 14 14 14 14 14 13 13 13 13 13 12 12 12 14 15 15 13 12 14 12 13 12 12 10 10 1 -2 -2 -3 -4 -6 -6 -7
9 9 9 10 10 10 10 9 11 12 10 11 14 13 13 14 13 13 12 13 14 12 13 12 14 13 13 14 15 14 13 14 13 12 11 7 -1 -2 -3 -4 -4 -5 -6 -7 -8
9 9 9 9 10 10 10 11 11 10 10 11 12 13 12 13 13 13 12 12 13 11 12 13 13 12 13 13 14 14 14 15 13 12 13 6 3 5 -3 -3 -4 -4 -7 -8 -9
8 7 9 9 10 10 10 11 10 10 10 11 10 11 12 13 13 13 13 10 10 10 11 12 13 12 12 10 12 13 13 14 15 13 13 11 8 -0 -1 -2 -3 -5 -6 -8 -10
6 8 10 9 10 8 9 10 9 9 9 10 10 9 9 9 12 12 11 8 7 9 11 11 10 9 9 8 8 8 9 11 14 11 9 9 6 -4 -1 -2 -3 -5 -6 -9 -10
4 5 9 9 7 7 7 8 8 8 8 9 9 9 8 8 9 8 7 6 7 8 9 9 8 8 9 8 7 7 5 5 7 8 9 10 3 -3 -2 -3 -4 -6 -7 -8 -10
3 6 5 6 7 8 8 8 8 6 7 7 8 8 7 7 6 6 6 6 6 7 9 8 5 9 12 8 7 6 5 5 7 9 9 6 -6 -6 -4 -5 -6 -7 -9 -10 -11
-0 3 3 5 7 6 8 8 7 7 6 7 7 7 7 6 6 5 3 5 6 7 6 6 4 3 3 4 3 2 3 4 3 -0 8 0 -2 -5 -6 -7 -8 -10 -11 -12 -13
0 0 -1 1 3 5 6 7 7 6 6 6 6 7 5 7 7 6 4 4 4 5 4 3 3 4 2 3 3 0 1 0 -1 -3 -4 -4 -5 -9 -13 -13 -13 -13 -12 -13 -15
-1 -1 -1 2 2 4 4 5 5 5 4 4 5 5 5 5 4 3 2 2 3 3 3 4 3 3 2 1 3 4 -2 -2 -4 -5 -3 -0 -5 -10 -10 -9 -11 -12 -11 -12 -14
Height
776 774 771 771 768 766 765 763 762 760 761 760 762 764 764 765 769 768 761 760 764 764 768 769 774 776 778 780 780 783 800 806 794 794 803 802 808 823 832 834 843 850 856 861 857
775 773 770 769 767 764 763 760 759 758 759 759 761 763 764 766 767 760 752 757 760 763 765 770 774 777 779 781 781 788 802 793 796 792 804 816 817 825 838 841 852 856 861 860 858
773 771 768 767 765 763 761 758 757 756 758 758 760 762 763 764 767 749 746 753 758 762 766 770 771 776 780 780 783 787 793 792 799 799 803 819 835 836 837 858 871 872 867 865 863
773 771 768 766 764 762 759 757 756 755 756 756 757 761 764 764 764 743 744 747 756 761 766 769 773 778 783 787 781 786 793 791 799 804 807 823 839 856 858 876 877 877 875 873 871
771 770 767 764 762 759 758 756 754 753 754 755 757 759 764 765 756 744 744 747 755 759 763 767 774 779 783 784 782 785 800 806 813 816 827 833 849 859 874 878 879 879 877 876 876
771 768 765 762 760 759 755 754 752 752 753 754 756 759 761 762 745 744 743 746 751 757 762 764 771 774 780 781 784 795 804 812 817 818 825 834 854 853 880 881 880 880 882 880 878
769 767 763 761 759 757 754 750 750 750 751 753 756 759 761 751 744 745 745 747 751 755 759 763 767 772 775 784 787 795 811 815 818 821 833 824 856 878 883 882 882 883 888 887 887
767 764 762 759 756 754 751 750 747 748 750 754 757 760 757 744 744 745 747 749 753 757 761 764 767 771 774 776 787 794 804 814 814 817 823 826 872 881 885 885 889 887 892 893 893
765 761 758 756 755 753 751 748 748 750 752 755 759 759 752 743 743 744 746 749 754 759 762 764 768 774 774 786 797 795 809 805 816 824 821 827 870 885 888 888 893 894 896 897 898
763 759 756 753 753 751 749 749 751 754 754 757 759 763 747 741 739 742 745 747 753 759 764 767 775 781 788 792 798 800 803 802 813 833 843 856 877 887 892 894 897 899 899 900 902
759 756 753 751 750 750 750 751 756 759 752 746 746 741 737 737 738 741 745 748 752 761 771 769 779 778 781 784 781 788 796 818 832 840 852 869 880 892 897 898 900 903 904 904 906
755 752 750 748 747 747 748 747 745 745 746 741 742 740 736 735 740 741 743 748 755 765 768 775 773 773 775 780 780 787 809 837 843 844 854 875 887 894 897 901 903 905 906 908 910
752 748 746 745 745 746 746 745 744 743 743 735 736 736 735 734 738 741 741 747 756 765 767 770 765 770 774 781 785 790 802 824 824 859 863 871 887 894 902 904 906 908 909 910 912
749 745 743 743 746 745 746 744 744 745 746 734 735 729 732 732 738 736 739 746 755 762 767 765 761 765 775 777 781 790 788 804 833 825 826 856 834 884 897 903 907 911 913 913 915
748 744 742 743 744 746 746 744 744 745 753 730 732 725 727 734 736 739 738 744 755 758 763 762 764 768 772 769 774 780 785 800 813 818 835 851 846 883 893 901 906 912 915 916 917
745 743 741 743 743 743 743 743 746 754 754 731 727 730 733 734 737 740 742 743 746 754 755 757 753 758 760 761 766 778 791 802 808 814 811 819 821 854 880 871 898 909 914 916 918
743 742 743 742 742 741 742 744 754 762 724 731 730 728 731 737 739 740 743 748 753 760 763 757 755 752 752 764 767 769 785 812 815 811 800 809 826 858 869 875 886 901 911 916 919
743 741 741 742 741 741 742 748 753 734 730 730 725 729 732 733 738 741 743 747 748 749 759 763 768 756 750 754 766 773 771 786 788 795 797 808 806 864 884 886 894 902 910 915 919
744 744 741 740 742 743 745 759 746 739 745 741 727 732 735 731 735 739 744 742 740 747 750 757 753 753 752 751 750 764 768 764 779 784 793 826 882 885 889 895 899 905 911 916 920
744 744 744 742 740 743 748 744 743 743 745 742 738 730 735 732 735 737 742 739 741 746 746 745 754 754 754 752 752 755 756 765 771 781 781 829 850 829 881 887 896 901 910 916 920
746 748 745 743 744 745 745 742 744 743 746 743 744 742 734 729 730 733 732 746 748 748 746 745 748 761 757 769 759 758 758 759 757 768 770 782 799 856 858 873 885 897 907 914 919
746 754 748 746 746 750 745 745 749 746 747 743 744 748 748 746 729 732 735 751 755 751 744 747 759 770 770 778 778 779 773 767 758 778 789 790 817 871 862 871 883 895 905 913 918
753 755 747 748 756 755 752 748 749 748 748 745 741 741 749 752 749 750 752 758 756 754 750 752 763 779 771 778 782 781 794 793 786 778 782 779 829 867 864 876 887 896 905 911 917
754 757 754 750 753 750 751 748 748 752 750 748 747 746 749 751 760 760 763 760 759 755 750 753 774 755 737 763 772 782 790 792 783 773 773 798 880 880 874 880 890 897 905 911 916
761 767 769 761 751 756 751 748 749 749 751 750 749 749 748 755 757 759 769 763 758 758 761 758 778 786 791 788 793 801 796 796 801 825 779 826 842 863 873 883 892 900 908 913 918
771 772 771 770 766 761 753 749 748 749 751 752 750 744 749 744 744 751 760 764 761 761 771 772 781 780 800 794 796 815 814 815 826 842 849 852 863 878 893 897 903 906 909 913 917
778 777 775 768 768 764 765 758 754 753 754 757 753 754 753 750 752 756 762 763 765 764 771 771 778 780 797 806 800 796 831 830 841 851 844 832 853 877 889 890 897 903 905 908 912
Wind_Speed
14 13 13 12 12 12 11 8 9 12 12 11 12 11 10 8 8 9 9 10 20 4 16 14 11 8 6 3 3 4 3 1 3 6 5 3 5 6 10 10 9 8 11 8 16
13 13 13 13 13 12 12 10 8 9 11 12 11 11 10 8 8 15 22 18 10 12 16 17 6 6 2 4 2 3 3 4 3 4 6 9 9 6 7 11 12 9 19 20 21
14 13 14 14 14 13 12 11 9 7 11 13 10 11 9 7 2 9 17 21 18 18 17 18 15 4 3 2 4 4 3 2 7 12 7 10 10 8 9 13 11 9 14 20 24
15 14 14 13 14 13 13 11 9 7 9 12 10 12 8 7 6 1 1 27 24 21 12 12 5 5 4 6 3 5 8 5 4 6 6 6 8 11 18 9 10 12 15 19 21
15 15 14 13 14 14 13 12 8 6 9 12 12 12 10 2 8 1 4 24 25 22 19 7 5 5 5 4 4 3 4 8 15 24 20 25 20 13 17 12 14 16 21 21 22
16 15 14 13 13 14 12 12 7 5 10 13 14 16 3 4 3 3 2 27 23 26 15 10 8 5 5 5 4 6 14 16 13 15 6 15 9 6 8 9 14 16 17 22 26
16 15 15 14 13 13 13 9 8 6 10 13 15 16 2 9 2 6 13 25 25 26 7 11 5 5 4 5 9 14 10 8 5 5 9 13 11 11 9 11 15 16 15 18 23
17 16 15 14 13 14 11 7 4 7 11 13 15 7 6 3 10 9 17 15 17 19 15 18 5 3 2 4 6 5 6 6 5 6 4 3 5 7 7 11 13 14 12 14 21
18 17 16 15 13 12 5 4 5 9 12 14 8 3 7 1 6 11 15 11 14 12 6 14 4 3 3 5 4 3 5 3 6 10 4 6 8 8 8 11 12 10 11 12 13
20 19 17 15 12 7 2 7 11 13 14 9 1 1 6 5 7 12 12 19 5 8 3 4 3 4 3 4 8 7 6 3 6 3 15 19 16 10 8 11 11 9 9 11 13
21 20 17 14 11 5 10 13 4 1 7 7 6 3 1 2 13 8 13 9 6 5 6 3 4 12 11 5 4 6 6 7 5 6 8 13 13 9 7 8 9 8 8 10 11
22 20 16 11 8 5 5 3 3 3 4 15 6 6 4 4 4 5 21 6 7 9 6 4 14 6 6 5 4 4 8 5 10 4 7 12 11 7 5 5 6 8 8 8 7
21 18 14 8 5 5 7 10 5 9 2 3 7 4 4 5 4 9 7 4 5 6 6 7 2 8 7 5 6 4 7 7 7 10 13 12 4 5 4 9 8 8 8 9 9
19 13 9 2 2 3 5 17 15 11 2 4 5 6 4 4 1 6 9 6 3 10 6 3 5 13 6 8 9 8 8 12 17 9 4 10 4 6 9 7 6 5 5 7 8
18 9 4 6 3 2 1 5 7 1 2 2 4 3 4 6 6 3 6 3 7 5 7 8 9 6 6 8 7 7 15 16 13 6 6 8 2 2 11 9 10 6 7 6 7
15 8 4 7 3 2 3 0 4 3 6 2 4 5 6 3 2 3 5 2 4 5 1 6 2 6 10 4 12 11 9 7 4 3 4 10 6 6 9 7 12 9 8 9 8
11 2 6 4 1 4 5 2 2 3 2 3 3 5 6 4 3 5 12 12 6 5 5 3 3 2 4 6 3 5 9 3 2 4 4 8 6 3 2 11 14 16 11 8 8
3 2 5 3 1 3 3 1 4 3 2 3 3 7 8 5 3 4 10 14 7 2 4 6 3 7 4 6 8 7 9 5 6 5 3 7 6 2 6 11 14 14 11 10 8
0 2 2 1 2 2 2 3 4 2 2 6 3 4 4 5 5 4 7 12 9 7 7 7 7 1 2 0 7 6 9 6 5 2 3 3 2 2 10 12 14 13 12 10 8
1 1 3 2 5 3 2 5 4 1 2 1 2 3 6 9 6 9 10 4 6 6 0 5 3 1 1 1 0 4 5 4 1 6 5 3 3 3 17 18 16 14 11 10 9
3 2 4 3 5 2 5 3 2 1 1 1 2 3 3 5 5 5 7 0 1 4 4 3 2 1 3 2 2 3 3 1 1 3 3 3 4 3 16 19 18 13 12 10 8
2 2 3 1 1 1 3 2 1 1 1 3 4 1 2 4 4 8 9 1 4 2 8 4 4 3 1 2 2 2 1 2 7 6 2 2 3 5 7 16 16 14 14 10 9
2 1 2 2 2 2 2 2 2 2 3 1 3 4 4 1 3 1 3 0 1 1 6 6 3 2 1 1 1 4 2 1 1 2 6 5 2 7 13 14 13 15 12 11 10
2 2 3 3 1 2 2 4 3 2 3 2 2 1 3 4 4 2 2 1 2 0 1 5 3 3 9 1 2 5 3 3 1 2 4 4 7 7 13 15 12 12 9 8 7
4 1 1 3 0 3 2 2 2 3 2 3 3 6 6 4 3 6 3 1 3 2 2 3 4 4 6 4 4 3 3 4 3 2 4 5 7 16 13 14 12 8 8 7 6
2 3 4 2 3 5 2 3 5 2 4 4 5 2 5 4 5 6 7 5 4 4 3 3 4 3 3 7 5 5 7 11 7 5 7 6 2 3 5 7 6 7 8 6 6
6 4 2 2 3 1 2 3 5 1 2 2 4 3 3 4 3 4 3 5 3 5 3 3 7 3 3 4 4 2 1 3 4 3 3 5 4 13 9 10 9 9 7 6 5
Wind_Direction
335 334 331 324 323 320 317 302 284 244 243 226 229 229 228 227 229 232 231 208 220 209 184 165 172 165 165 134 151 123 74 203 219 155 139 64 87 49 57 69 50 52 59 18 6
336 332 331 327 323 321 316 317 290 257 237 229 218 222 218 207 230 246 224 212 214 194 176 163 165 152 118 145 163 110 123 204 278 128 108 75 67 86 65 59 51 56 38 30 28
337 334 334 332 325 321 317 317 300 267 235 219 213 208 208 173 242 244 237 212 184 182 185 179 162 141 132 138 192 162 165 89 39 102 94 92 65 28 117 51 35 32 29 30 34
338 331 329 329 326 322 321 314 308 270 229 211 203 188 185 160 191 343 263 188 179 181 172 156 131 143 139 172 207 131 37 87 126 61 82 71 87 71 60 86 67 56 55 49 40
337 331 326 327 325 321 316 310 302 267 223 202 192 176 160 180 253 299 259 179 181 187 179 146 138 131 164 177 115 104 123 53 95 85 86 88 77 94 75 80 72 61 52 47 43
337 329 328 326 323 318 315 307 291 241 209 197 186 174 155 218 260 263 185 171 176 173 175 152 171 176 141 159 129 91 92 116 101 110 114 95 74 85 69 79 69 61 51 46 43
335 332 328 324 322 319 311 321 286 228 194 191 183 181 193 238 62 168 160 166 177 180 146 173 155 140 129 123 140 135 89 95 147 101 129 125 36 76 99 82 68 62 54 52 47
332 331 327 322 321 322 323 322 301 185 174 178 175 175 245 257 248 184 178 166 180 193 195 183 132 172 190 136 71 106 106 132 215 180 149 310 121 103 88 89 72 68 59 54 47
331 328 324 322 322 318 322 72 107 154 153 158 158 180 258 303 180 192 188 162 164 175 161 187 151 176 93 106 96 193 156 149 117 19 123 40 135 116 99 90 81 70 68 60 50
329 326 323 320 319 320 101 115 112 132 141 145 86 328 258 214 172 168 168 157 135 123 89 116 89 141 60 121 197 177 145 139 120 49 65 86 110 102 87 91 85 77 67 64 52
328 324 319 315 311 291 128 127 106 219 233 192 201 241 235 192 144 159 157 123 100 110 163 177 138 200 199 165 165 137 119 108 82 98 75 104 117 109 101 92 91 81 70 69 59
328 322 315 307 299 262 214 243 163 253 239 229 270 278 271 180 115 157 157 123 132 167 132 111 214 185 161 173 141 135 118 92 80 81 82 126 108 109 99 90 98 100 84 76 59
328 325 314 303 288 244 211 224 138 30 222 244 189 203 228 153 166 191 142 112 126 140 173 182 239 143 153 165 165 174 141 169 141 108 72 131 123 168 108 110 101 88 90 76 65
330 330 319 284 156 167 227 233 270 308 349 220 190 235 183 133 215 170 163 133 158 182 128 207 204 181 165 201 170 216 170 140 135 158 186 218 221 201 174 152 126 107 89 85 72
331 336 303 186 104 199 360 256 264 263 307 124 150 137 153 161 137 228 168 83 164 174 139 222 168 152 185 203 156 215 133 157 164 139 119 203 265 118 152 196 175 149 125 97 84
334 349 139 162 211 214 342 360 183 44 246 170 132 154 135 134 70 116 135 68 150 135 142 208 166 156 189 152 170 126 106 73 117 107 240 176 191 189 188 194 154 150 140 122 101
331 40 145 183 168 321 118 14 99 199 337 172 180 155 162 145 122 185 173 188 172 142 182 176 202 211 148 102 110 145 147 113 212 210 223 169 176 63 180 147 158 153 139 120 108
302 138 184 201 347 353 147 208 210 214 307 349 143 138 180 143 180 167 168 196 236 126 137 163 204 174 190 168 173 175 179 156 189 188 159 142 228 106 90 106 123 127 128 123 101
84 142 129 72 232 173 94 143 227 336 307 339 33 148 197 187 143 141 189 204 209 187 173 170 214 73 53 151 152 197 211 165 108 82 117 147 68 191 135 133 135 138 136 130 119
342 42 3 323 156 112 98 242 210 233 307 227 293 211 191 191 160 177 179 195 196 199 151 200 159 284 115 339 151 150 167 177 105 176 229 213 213 195 181 172 164 158 148 140 128
353 34 349 122 142 100 209 223 230 180 342 35 360 308 290 182 186 199 206 301 190 150 153 145 104 195 143 197 213 147 167 145 87 176 231 185 223 360 184 170 165 159 152 143 134
54 23 342 256 215 165 207 180 246 288 352 274 168 133 302 352 213 209 209 53 357 278 172 180 111 151 161 156 106 65 227 245 207 195 196 163 223 341 172 160 152 152 151 140 138
94 245 5 353 187 257 316 251 251 219 216 254 253 164 163 170 316 317 189 24 339 238 166 186 167 96 152 144 360 206 161 203 168 74 194 161 216 337 133 137 146 142 146 146 143
79 12 325 38 360 205 209 242 230 222 254 205 237 76 140 180 162 242 276 328 336 301 145 80 79 211 223 156 113 166 147 102 148 142 169 197 151 187 155 147 145 145 138 143 146
26 132 157 297 128 341 295 199 199 238 233 214 229 220 180 180 176 195 194 208 34 340 52 98 135 105 59 47 75 80 97 119 112 83 209 173 151 179 165 153 148 138 137 146 165
55 35 354 279 310 317 298 248 219 221 171 249 229 226 189 207 197 206 166 188 186 137 134 18 128 110 85 59 80 94 71 92 83 113 83 110 111 128 106 95 129 158 161 172 195
11 12 96 305 356 25 305 320 328 132 180 360 294 157 214 228 201 141 80 80 101 145 132 157 142 132 124 112 84 344 152 77 106 52 107 183 157 147 143 156 162 167 177 184 193